Back to catalog

GORIZONT 31

AliveCommunicationsGEO
NORAD 23775·PAYLOAD·🇷🇺 Russia

Launched Jan 25, 1996 from Baikonur Cosmodrome

Loading…

TLE

FreshSource: Space-Track

Epoch: Sep 13, 2026, 23:55 UTC

1 23775U 96005A   26256.99699631  .00000017  00000-0  00000-0 0  9995
2 23775  14.3969 353.9257 0022119 249.8923 125.2342  0.99896042111946

Track GORIZONT 31 in real time with AllMySat

Download on the App Store